STARLINK-4675, 53601

Orbit data source: Space-Track

STARLINK-4675, 53601 is a payload satellite owned by SpaceX/Seattle (US) in LEO that was launched on Sun, 28 Aug 2022 UTC via an FALCON 9 launch vehicle from the Air Force Eastern Test Range (AFETR). Payload-class satellites include a variety of spacecraft equipped with specific instruments for various scientific and technological missions. These include communications satellites like Starlink; space stations such as the ISS; scientific satellites like the Hubble; Earth observation satellites from companies like Planet Labs, Umbra, and HawkEye 360; GPS; miniature CubeSats for education and research; and military/defense satellites.

Loading next visibility...
Identifier
53601, 2022-104P
Orbit
LEO
Country
Flag of USUS
Related business
Manufacturer
SpaceX/Seattle
Mission
Operational Commercial Communications
Bus & Motor
STARLINK, Unknown motor
Mass
300 kg wet, ~290 kg dry
Launch date (UTC)
2022-08-28 (4 years ago)
Launch vehicle
FALCON 9
Launch site
Air Force Eastern Test Range (AFETR)
Object type
Payload
Rocket body
Debris
Shape & HBR
Box + 1 Pan, 10.1 m
Radar Cross Section
13.562 m², Large (>1 m²)

Expand to show TLE details & history
Last TLE update: 10 hours ago

TLE from 10 hours ago
0 STARLINK-4675
1 53601U 22104P   26127.02571896 -.00000650  00000-0 -22792-4 0  9999
2 53601  53.2178 342.0925 0001008  86.5513 273.5595 15.08828349204421
Epoch: 2026-05-07T00:37Z
TLE epoch observation values (Epoch: 2026-05-07T00:37:02.118Z)
Latitude
0.00004°
Longitude
107.95593°
Altitude
540.633 km
Speed
7.593 km/s
True Right ascension
22h 48m 22s
True Declination
0° 00' 00"
Sunlit
Object was in daylight at epoch
Visualization orbit readout
Latitude
Unknown
Longitude
Unknown
Altitude
Unknown
Speed
Unknown
Apparent Right ascension
Unknown
Apparent Declination
Unknown
Sunlit
N/A
Visualization observer readout
Local Sidereal Time
18:27:01
Azimuth
Unknown
Elevation
Unknown
Doppler factor
Unknown
Orbital elements
Apogee altitude
540.721 km
Perigee altitude
539.327 km
Semi-major axis
6,918.161 km
Eccentricity
0.0001
Inclination
53.2178°
RAAN
342.0925°
Arg. of periapsis
86.5513°
True anomaly
273.54797°
Mean anomaly
273.5595°
Eccentric anomaly
273.55374°
Mean motion
3.77187 °/min
Orbital period
95.44 mins
BSTAR
-0.000022792
Loading maneuver chart data...
Computing Atmospheric mass density...
Loading historical data...
Loading historical data...
Loading historical data...
Loading historical data...
Loading historical data...
Loading historical data...
Loading historical data...

Documentation

Showing up to 5 results
|